Voltar ao catálogo

STARLINK-31220

AtivoComunicaçõesVLEO
NORAD 59039·PAYLOAD·🇺🇸 United States

Lançado Feb 25, 2024 de Cape Canaveral Space Force Station

Loading…

Próximas Passagens (próximas 24 horas)

TLE

AtualizadoSource: CelesTrak SupGP

Época: Sep 15, 2026, 03:23 UTC

1 59039C 24038S   26258.14145833 -.00013851  00000+0 -50170-3 0  2588
2 59039  43.0014  37.0571 0001526 265.7444  61.6834 15.27585161    19

Acompanhe STARLINK-31220 em tempo real com AllMySat

Download on the App Store